Flag for Austria Weather past 2 weeks in Oberpullendorf, Burgenland, Austria

Now
64 °F

Overcast.


Feels Like: 64 °F
Forecast: 54 / 63 °F
Wind: 5 mph from Northwest

Location: Eisenstadt

Current Time: May 25, 2015 at 5:54:07 PM

Latest Report: May 25, 2015 at 5:00 PM


Visibility: 7 mi

Pressure: 29.80 "Hg

Humidity: 68%

Dew point: 54 °F

Location of OberpullendorfLocation

Historic Weather in Oberpullendorf — Graph

°F

Oberpullendorf temperature yesterday

Maximum temperature yesterday: 61 °F (at 2:00 PM)
Minimum temperature yesterday: 52 °F (at 5:00 AM)
Average temperature yesterday: 56 °F

Past Weeks' High & Low Weather Summary

 TemperatureHumidityPressure
High78 °F (May 12, 4:00 PM)95% (May 16, 12:00 AM)30.39 "Hg (May 16, 12:00 AM)
Low46 °F (May 11, 6:00 AM)29% (May 12, 12:00 PM)29.73 "Hg (May 19, 6:00 AM)
Average59 °F70%30.01 "Hg
* Reported May 10 4:00 PM — May 25 4:00 PM, Oberpullendorf, Weather by CustomWeather, © 2015

Note: Actual official high and low records may vary slightly from our data, if they occured in-between our weather recording intervals... More about our weather records

Advertising

Oberpullendorf weather history for previous 24 hours

 ConditionsComfort  
Time TempWeatherWind HumidityBarometerVisibility
4:00 PM
Mon, May 25
66 °FMild.2 mph64%29.82 "HgN/A
3:00 PM66 °FMild.3 mph58%29.83 "HgN/A
2:00 PM66 °FOvercast.3 mph59%29.84 "Hg12 mi
1:00 PM65 °FMild.7 mph59%29.84 "HgN/A
12:00 PM64 °FMild.7 mph61%29.85 "HgN/A
11:00 AM63 °FOvercast.7 mph63%29.86 "Hg12 mi
10:00 AM60 °FCool.9 mph69%29.86 "HgN/A
9:00 AM58 °FCool.9 mph71%29.88 "HgN/A
8:00 AM58 °FOvercast.8 mph73%29.88 "Hg12 mi
7:00 AM56 °FOvercast.8 mph78%29.90 "Hg12 mi
6:00 AM54 °FScattered clouds.6 mph83%29.91 "Hg12 mi
4:00 AM55 °FPassing clouds.8 mph79%29.91 "Hg12 mi
3:00 AM55 °FCool.8 mph79%29.93 "HgN/A
2:00 AM56 °FPassing clouds.7 mph78%29.94 "Hg12 mi
1:00 AM55 °FCool.3 mph79%29.97 "HgN/A
12:00 AM55 °FCool.2 mph79%29.97 "HgN/A
10:00 PM
Sun, May 24
55 °FCool.6 mph81%30.00 "HgN/A
9:00 PM56 °FCool.7 mph80%30.00 "HgN/A
8:00 PM56 °FPartly sunny.7 mph79%29.99 "Hg16 mi
7:00 PM57 °FPartly sunny.8 mph78%30.00 "Hg19 mi
6:00 PM59 °FCool.7 mph76%30.00 "HgN/A
5:00 PM59 °FOvercast.6 mph76%30.00 "Hg19 mi
Weather by CustomWeather, © 2015

See weather overviewHow to use our weather pages